Change the Weather History Date:

Sunday, November 27, 2011

  Actual Average (KEWN) Record (KEWN)
Temperature  
Mean Temperature 56 °F 52 °F  
Max Temperature 71 °F 63 °F 84 °F (1973)
Min Temperature 42 °F 41 °F 25 °F (2008)
Degree Days  
Heating Degree Days 8 13  
Month to date heating degree days 268  
Since 1 July heating degree days 385  
Cooling Degree Days 0 0  
Month to date cooling degree days 14  
Year to date cooling degree days 1899  
Growing Degree Days 6 (Base 50)    
Moisture  
Dew Point 48 °F    
Average Humidity 68    
Maximum Humidity 82    
Minimum Humidity 41    
Precipitation  
Precipitation 0.00 in 0.12 in 1.83 in (1992)
Month to date precipitation 3.04  
Year to date precipitation 48.99  
Snow  
Snow 0.00 in - - ()
Month to date snowfall  
Since 1 July snowfall  
Snow Depth -    
Sea Level Pressure  
Sea Level Pressure 30.23 in    
Wind  
Wind Speed 3 mph (SSE)    
Max Wind Speed 15 mph    
Max Gust Speed 20 mph    
Visibility 9 miles    
Events      
T = Trace of Precipitation, MM = Missing Value Source: NWS Daily Summary

Daily Weather History Graph

Daily Weather History Graph

Search for Another Location

Airport or City:

Trip Planner

Search our weather history database for the weather conditions in past years. The results will help you decide how hot, cold, wet, or windy it might be!

Date:

Astronomy

Nov. 27, 2011 Rise Set
Actual Time 6:55 AM EST 4:56 PM EST
Civil Twilight 6:27 AM EST 5:23 PM EST
Nautical Twilight 5:56 AM EST 5:55 PM EST
Astronomical Twilight 5:25 AM EST 6:25 PM EST
Moon 9:17 AM EST (11/27) 7:32 PM EST (11/27)
Length of Visible Light 10h 56m
Length of Day
10h 00m
Waxing Crescent, 8% of the Moon is Illuminated
Nov 27
Waxing Crescent
Dec 2
First Quarter
Dec 10
Full
Dec 17
Last Quarter
Dec 24
New

Hourly Weather History & Observations

Time (EST) Temp. Windchill Dew Point Humidity Pressure Visibility Wind Dir Wind Speed Gust Speed Precip Events Conditions
12:15 AM 53.6 °F - 46.4 °F 77% 30.28 in 10.0 mi SSW 3.5 mph - N/A   Clear
12:35 AM 51.8 °F - 46.4 °F 82% 30.27 in 10.0 mi Calm Calm - N/A   Clear
12:55 AM 51.8 °F - 46.4 °F 82% 30.27 in 10.0 mi Calm Calm - N/A   Clear
1:15 AM 51.8 °F - 46.4 °F 82% 30.27 in 10.0 mi Calm Calm - N/A   Clear
1:35 AM 51.8 °F - 46.4 °F 82% 30.27 in 10.0 mi Calm Calm - N/A   Clear
1:55 AM 51.8 °F - 46.4 °F 82% 30.27 in 10.0 mi Calm Calm - N/A   Clear
2:15 AM 51.8 °F - 46.4 °F 82% 30.26 in 10.0 mi Calm Calm - N/A   Clear
2:35 AM 51.8 °F - 46.4 °F 82% 30.26 in 7.0 mi Calm Calm - N/A   Clear
2:55 AM 48.2 °F - 42.8 °F 82% 30.26 in 5.0 mi Calm Calm - N/A   Haze
3:15 AM 46.4 °F - 41.0 °F 81% 30.26 in 0.8 mi Calm Calm - N/A   Haze
3:35 AM 44.6 °F - 39.2 °F 81% 30.25 in 0.2 mi Calm Calm - N/A   Haze
3:55 AM 46.4 °F - 41.0 °F 81% 30.25 in 0.2 mi Calm Calm - N/A   Haze
4:15 AM 44.6 °F - 39.2 °F 81% 30.25 in 0.2 mi Calm Calm - N/A   Haze
4:35 AM 44.6 °F - 37.4 °F 76% 30.24 in 0.2 mi Calm Calm - N/A   Haze
5:15 AM 46.4 °F - 41.0 °F 81% 30.24 in 7.0 mi Calm Calm - N/A   Clear
5:35 AM 48.2 °F - 42.8 °F 82% 30.24 in 7.0 mi Calm Calm - N/A   Clear
5:55 AM 46.4 °F - 41.0 °F 81% 30.24 in 0.5 mi Calm Calm - N/A   Haze
6:15 AM 42.8 °F - 37.4 °F 81% 30.25 in 10.0 mi Calm Calm - N/A   Clear
6:35 AM 44.6 °F 43.1 °F 37.4 °F 76% 30.25 in 5.0 mi SE 3.5 mph - N/A   Haze
6:55 AM 42.8 °F 41.1 °F 35.6 °F 76% 30.25 in 10.0 mi SE 3.5 mph - N/A   Clear
7:15 AM 44.6 °F 43.1 °F 39.2 °F 81% 30.25 in 10.0 mi SSE 3.5 mph - N/A   Clear
7:35 AM 51.8 °F - 46.4 °F 82% 30.25 in 10.0 mi Calm Calm - N/A   Clear
7:55 AM 51.8 °F - 46.4 °F 82% 30.26 in 10.0 mi SE 3.5 mph - N/A   Scattered Clouds
8:15 AM 53.6 °F - 48.2 °F 82% 30.26 in 10.0 mi SSE 3.5 mph - N/A   Mostly Cloudy
8:35 AM 57.2 °F - 51.8 °F 82% 30.26 in 10.0 mi SSE 4.6 mph - N/A   Mostly Cloudy
8:55 AM 57.2 °F - 50.0 °F 77% 30.27 in 10.0 mi South 3.5 mph - N/A   Overcast
9:15 AM 60.8 °F - 51.8 °F 72% 30.27 in 10.0 mi SSE 3.5 mph - N/A   Overcast
9:35 AM 60.8 °F - 51.8 °F 72% 30.27 in 10.0 mi SSE 3.5 mph - N/A   Overcast
9:55 AM 62.6 °F - 51.8 °F 68% 30.28 in 10.0 mi SSE 4.6 mph - N/A   Overcast
10:15 AM 62.6 °F - 51.8 °F 68% 30.27 in 10.0 mi South 6.9 mph - N/A   Mostly Cloudy
10:35 AM 64.4 °F - 51.8 °F 64% 30.27 in 10.0 mi SSE 5.8 mph - N/A   Mostly Cloudy
10:55 AM 66.2 °F - 51.8 °F 60% 30.26 in 10.0 mi SSE 4.6 mph - N/A   Mostly Cloudy
11:15 AM 68.0 °F - 51.8 °F 56% 30.25 in 10.0 mi SSE 6.9 mph - N/A   Mostly Cloudy
11:35 AM 69.8 °F - 51.8 °F 53% 30.24 in 10.0 mi South 6.9 mph - N/A   Mostly Cloudy
11:55 AM 69.8 °F - 51.8 °F 53% 30.24 in 10.0 mi South 8.1 mph - N/A   Mostly Cloudy
12:15 PM 69.8 °F - 50.0 °F 49% 30.23 in 10.0 mi South 6.9 mph - N/A   Overcast
12:35 PM 71.6 °F - 50.0 °F 46% 30.22 in 10.0 mi SW 9.2 mph - N/A   Overcast
12:55 PM 71.6 °F - 50.0 °F 46% 30.22 in 10.0 mi SSW 15.0 mph 19.6 mph N/A   Mostly Cloudy
1:15 PM 71.6 °F - 46.4 °F 41% 30.21 in 10.0 mi South 9.2 mph - N/A   Scattered Clouds
1:35 PM 71.6 °F - 46.4 °F 41% 30.20 in 10.0 mi SSW 11.5 mph 17.3 mph N/A   Mostly Cloudy
1:55 PM 71.6 °F - 46.4 °F 41% 30.20 in 10.0 mi SSW 8.1 mph 16.1 mph N/A   Scattered Clouds
2:15 PM 71.6 °F - 48.2 °F 43% 30.19 in 10.0 mi South 9.2 mph - N/A   Mostly Cloudy
2:35 PM 71.6 °F - 46.4 °F 41% 30.19 in 10.0 mi South 6.9 mph - N/A   Scattered Clouds
2:55 PM 71.6 °F - 46.4 °F 41% 30.18 in 10.0 mi South 10.4 mph - N/A   Scattered Clouds
3:15 PM 71.6 °F - 48.2 °F 43% 30.18 in 10.0 mi SSE 5.8 mph - N/A   Scattered Clouds
3:35 PM 71.6 °F - 50.0 °F 46% 30.18 in 10.0 mi SSE 9.2 mph - N/A   Scattered Clouds
3:55 PM 71.6 °F - 50.0 °F 46% 30.18 in 10.0 mi SSE 8.1 mph - N/A   Scattered Clouds
4:15 PM 69.8 °F - 50.0 °F 49% 30.18 in 10.0 mi SSE 4.6 mph - N/A   Scattered Clouds
4:55 PM 64.4 °F - 51.8 °F 64% 30.18 in 10.0 mi ESE 4.6 mph - N/A   Mostly Cloudy
5:15 PM 62.6 °F - 51.8 °F 68% 30.18 in 10.0 mi ESE 4.6 mph - N/A   Scattered Clouds
5:35 PM 62.6 °F - 53.6 °F 72% 30.18 in 10.0 mi ESE 4.6 mph - N/A   Mostly Cloudy
5:55 PM 62.6 °F - 53.6 °F 72% 30.18 in 10.0 mi ESE 5.8 mph - N/A   Mostly Cloudy
6:15 PM 60.8 °F - 51.8 °F 72% 30.18 in 10.0 mi ESE 5.8 mph - N/A   Scattered Clouds
6:35 PM 60.8 °F - 51.8 °F 72% 30.18 in 10.0 mi ESE 5.8 mph - N/A   Scattered Clouds
6:55 PM 60.8 °F - 51.8 °F 72% 30.18 in 10.0 mi ESE 4.6 mph - N/A   Clear
7:35 PM 60.8 °F - 53.6 °F 77% 30.18 in 10.0 mi ESE 5.8 mph - N/A   Clear
7:55 PM 60.8 °F - 53.6 °F 77% 30.18 in 10.0 mi ESE 4.6 mph - N/A   Scattered Clouds
8:15 PM 60.8 °F - 51.8 °F 72% 30.18 in 10.0 mi ESE 5.8 mph - N/A   Clear
8:35 PM 60.8 °F - 51.8 °F 72% 30.17 in 10.0 mi SE 5.8 mph - N/A   Clear
8:55 PM 60.8 °F - 51.8 °F 72% 30.17 in 10.0 mi SE 5.8 mph - N/A   Scattered Clouds
9:15 PM 60.8 °F - 51.8 °F 72% 30.16 in 10.0 mi SE 6.9 mph - N/A   Scattered Clouds
9:35 PM 60.8 °F - 51.8 °F 72% 30.16 in 10.0 mi ESE 8.1 mph - N/A   Clear
9:55 PM 60.8 °F - 51.8 °F 72% 30.16 in 10.0 mi SSE 6.9 mph - N/A   Clear
10:35 PM 60.8 °F - 51.8 °F 72% 30.15 in 10.0 mi SE 5.8 mph - N/A   Scattered Clouds
10:55 PM 60.8 °F - 51.8 °F 72% 30.16 in 10.0 mi SE 5.8 mph - N/A   Overcast
11:15 PM 60.8 °F - 51.8 °F 72% 30.15 in 10.0 mi SE 3.5 mph - N/A   Mostly Cloudy
11:35 PM 60.8 °F - 51.8 °F 72% 30.14 in 10.0 mi Calm Calm - N/A   Overcast
11:55 PM 60.8 °F - 51.8 °F 72% 30.14 in 10.0 mi SSE 3.5 mph - N/A   Overcast